Location: Bishausen
(51.6334°N, 9.9631°E)
Time: 10:49:34
(UTC+00:00)

Cosmos 1703 Rocket - Pass Details

Date: 23 May 2024
Orbit: 602 x 629 km, 82.5° (Epoch: 24 June)

Event Time Altitude Azimuth Distance (km) Brightness Sun altitude
Exits shadow 00:59:04 22° 185° (S) 1,369 4.8 -14.3°
Maximum altitude 01:01:54 83° 99° (E) 638 3.6 -14.2°
Drops below altitude 10° 01:06:23 10° 12° (NNE) 2,018 7.5 -13.9°
Sets 01:08:38 0° 12° (NNE) 2,932 8.7 -13.7°
